International Skating Union - Official Site

ISU World Junior Speed Skating Championships 2017
February 17-19, 2017

Draw | Lap Times | Index

Referee: Melanie  SYMALLA  (GER)
Starter: Bartosz  DAWIDOWSKI  (POL)
StartTime: EndTime: Air Temp: Ice Temp: Humidity:
11:50 12:25 3.6 ℃ -3.5 ℃ 93%
Result Team Pursuit Men
Rankings as of Feb 19 2017 1:32PM
Rank: No.: Team: Nation: Time: Behind:
Total 12
1 9 Japan (32) Riki Hayashi (35) Riku Tsuchiya (36) Aoi Yokoyama JPN JPN 4:09.650.5 - 18.11 - (18.1)
1.0 - 32.60 - (14.4)
1.5 - 47.49 - (14.8)
2.0 - 1:02.67 - (15.1)
2.5 - 1:17.98 - (15.3)
3.0 - 1:33.16 - (15.1)
3.5 - 1:48.93 - (15.7)
4.0 - 2:04.25 - (15.3)
4.5 - 2:19.80 - (15.5)
5.0 - 2:35.56 - (15.7)
5.5 - 2:51.49 - (15.9)
6.0 - 3:07.38 - (15.8)
6.5 - 3:23.35 - (15.9)
7.0 - 3:38.96 - (15.6)
7.5 - 3:54.47 - (15.5)
8.0 - 4:09.65 - (15.1)
2 11 Netherlands (49) Chris Huizinga (50) Tijmen Snel (51) Marwin Talsma NED NED 4:11.080.5 - 19.03 - (19.0)
1.0 - 33.83 - (14.7)
1.5 - 48.60 - (14.7)
2.0 - 1:03.28 - (14.6)
2.5 - 1:17.98 - (14.7)
3.0 - 1:33.27 - (15.2)
3.5 - 1:48.52 - (15.2)
4.0 - 2:03.96 - (15.4)
4.5 - 2:19.83 - (15.8)
5.0 - 2:35.64 - (15.8)
5.5 - 2:51.61 - (15.9)
6.0 - 3:07.57 - (15.9)
6.5 - 3:23.65 - (16.0)
7.0 - 3:39.58 - (15.9)
7.5 - 3:55.36 - (15.7)
8.0 - 4:11.08 - (15.6)
1.43
3 13 Norway (52) Marius Bratli (54) Magnus Bakken Haugli (55) Allan Dahl Johansson (56) Vetle Stangelan NOR NOR 4:14.090.5 - 18.48 - (18.4)
1.0 - 32.76 - (14.2)
1.5 - 47.37 - (14.6)
2.0 - 1:02.19 - (14.8)
2.5 - 1:17.66 - (15.4)
3.0 - 1:33.29 - (15.6)
3.5 - 1:49.16 - (15.8)
4.0 - 2:04.90 - (15.7)
4.5 - 2:20.94 - (16.0)
5.0 - 2:37.36 - (16.4)
5.5 - 2:54.01 - (16.6)
6.0 - 3:09.87 - (15.8)
6.5 - 3:25.93 - (16.0)
7.0 - 3:42.07 - (16.1)
7.5 - 3:57.95 - (15.8)
8.0 - 4:14.09 - (16.1)
4.44
4 6 China (12) Zhibo Cui (13) Yanan Jin (14) Alemasi Kahanbai CHN CHN 4:14.980.5 - 18.31 - (18.3)
1.0 - 32.61 - (14.3)
1.5 - 47.13 - (14.5)
2.0 - 1:02.24 - (15.1)
2.5 - 1:17.88 - (15.6)
3.0 - 1:33.22 - (15.3)
3.5 - 1:48.74 - (15.5)
4.0 - 2:04.34 - (15.6)
4.5 - 2:20.26 - (15.9)
5.0 - 2:36.38 - (16.1)
5.5 - 2:52.67 - (16.2)
6.0 - 3:09.28 - (16.6)
6.5 - 3:25.80 - (16.5)
7.0 - 3:42.31 - (16.5)
7.5 - 3:58.74 - (16.4)
8.0 - 4:14.98 - (16.2)
5.33
5 10 Canada (8) Graeme Fish (9) Connor  Howe (10) David La Rue (11) Tyson Langelaar CAN CAN 4:15.210.5 - 18.64 - (18.6)
1.0 - 33.29 - (14.6)
1.5 - 48.21 - (14.9)
2.0 - 1:03.43 - (15.2)
2.5 - 1:18.47 - (15.0)
3.0 - 1:33.59 - (15.1)
3.5 - 1:49.28 - (15.6)
4.0 - 2:04.38 - (15.0)
4.5 - 2:19.93 - (15.5)
5.0 - 2:35.52 - (15.5)
5.5 - 2:51.57 - (16.0)
6.0 - 3:07.66 - (16.0)
6.5 - 3:24.19 - (16.5)
7.0 - 3:40.91 - (16.7)
7.5 - 3:57.89 - (16.9)
8.0 - 4:15.21 - (17.2)
5.56
6 7 Korea (43) Do Hyung Lee (44) Hyun Min Oh (46) Seok Jung Yoon KOR KOR 4:15.650.5 - 18.77 - (18.7)
1.0 - 33.27 - (14.5)
1.5 - 48.07 - (14.7)
2.0 - 1:03.13 - (15.0)
2.5 - 1:18.32 - (15.1)
3.0 - 1:33.66 - (15.3)
3.5 - 1:49.14 - (15.4)
4.0 - 2:04.96 - (15.8)
4.5 - 2:20.99 - (16.0)
5.0 - 2:37.39 - (16.3)
5.5 - 2:53.56 - (16.1)
6.0 - 3:09.64 - (16.0)
6.5 - 3:26.40 - (16.7)
7.0 - 3:43.06 - (16.6)
7.5 - 3:59.38 - (16.3)
8.0 - 4:15.65 - (16.2)
6.00
7 14 Russia (62) Egor Bukin (63) Isa Izmailov (64) Aleksandr Podolskii (65) Yegor Yunin RUS RUS 4:16.210.5 - 18.39 - (18.3)
1.0 - 32.85 - (14.4)
1.5 - 47.52 - (14.6)
2.0 - 1:02.65 - (15.1)
2.5 - 1:17.82 - (15.1)
3.0 - 1:33.69 - (15.8)
3.5 - 1:49.54 - (15.8)
4.0 - 2:06.03 - (16.4)
4.5 - 2:22.02 - (15.9)
5.0 - 2:38.15 - (16.1)
5.5 - 2:54.29 - (16.1)
6.0 - 3:10.93 - (16.6)
6.5 - 3:27.22 - (16.2)
7.0 - 3:43.74 - (16.5)
7.5 - 3:59.89 - (16.1)
8.0 - 4:16.21 - (16.3)
6.56
8 12 Poland (57) Dawid Burzykowski (58) Artur  Janicki (59) Mateusz Owczarek (61) Damian Zurek POL POL 4:18.310.5 - 19.26 - (19.2)
1.0 - 34.03 - (14.7)
1.5 - 49.15 - (15.1)
2.0 - 1:03.97 - (14.8)
2.5 - 1:19.00 - (15.0)
3.0 - 1:34.66 - (15.6)
3.5 - 1:50.63 - (15.9)
4.0 - 2:06.56 - (15.9)
4.5 - 2:23.03 - (16.4)
5.0 - 2:39.31 - (16.2)
5.5 - 2:55.65 - (16.3)
6.0 - 3:12.27 - (16.6)
6.5 - 3:28.58 - (16.3)
7.0 - 3:44.82 - (16.2)
7.5 - 4:01.43 - (16.6)
8.0 - 4:18.31 - (16.8)
8.66
9 8 Germany (24) Paul Galczinsky (26) Lukas Mann (27) Jeremias Marx (28) Max Reder GER GER 4:20.170.5 - 18.62 - (18.6)
1.0 - 33.29 - (14.6)
1.5 - 48.20 - (14.9)
2.0 - 1:03.43 - (15.2)
2.5 - 1:18.96 - (15.5)
3.0 - 1:34.43 - (15.4)
3.5 - 1:49.99 - (15.5)
4.0 - 2:05.80 - (15.8)
4.5 - 2:21.97 - (16.1)
5.0 - 2:38.48 - (16.5)
5.5 - 2:55.20 - (16.7)
6.0 - 3:11.71 - (16.5)
6.5 - 3:28.34 - (16.6)
7.0 - 3:45.52 - (17.1)
7.5 - 4:02.89 - (17.3)
8.0 - 4:20.17 - (17.2)
10.52
10 1 Kazakhstan (38) Vitaliy Chshigolev (39) Artur Galiyev (40) Demyan Gavrilov (41) Anvar Mukhamadeyev KAZ KAZ 4:28.080.5 - 19.42 - (19.4)
1.0 - 35.22 - (15.7)
1.5 - 50.30 - (15.0)
2.0 - 1:05.62 - (15.3)
2.5 - 1:21.13 - (15.5)
3.0 - 1:37.45 - (16.3)
3.5 - 1:54.00 - (16.5)
4.0 - 2:11.12 - (17.1)
4.5 - 2:27.89 - (16.7)
5.0 - 2:44.74 - (16.8)
5.5 - 3:01.34 - (16.5)
6.0 - 3:18.48 - (17.1)
6.5 - 3:35.88 - (17.4)
7.0 - 3:53.69 - (17.8)
7.5 - 4:10.95 - (17.2)
8.0 - 4:28.08 - (17.1)
18.43
11 2 Italy (29) Francesco Betti (30) Gabriele Galli (31) Jeffrey Rosanelli ITA ITA 4:30.790.5 - 19.01 - (19.0)
1.0 - 34.07 - (15.0)
1.5 - 49.16 - (15.0)
2.0 - 1:04.40 - (15.2)
2.5 - 1:20.42 - (16.0)
3.0 - 1:36.46 - (16.0)
3.5 - 1:53.18 - (16.7)
4.0 - 2:10.00 - (16.8)
4.5 - 2:27.13 - (17.1)
5.0 - 2:44.28 - (17.1)
5.5 - 3:02.22 - (17.9)
6.0 - 3:19.99 - (17.7)
6.5 - 3:37.56 - (17.5)
7.0 - 3:55.23 - (17.6)
7.5 - 4:13.00 - (17.7)
8.0 - 4:30.79 - (17.7)
21.14
12 4 USA (71) William Gebauer (72) Austin Kleba (73) Conor McDermott-Mostowy USA USA 4:33.230.5 - 18.87 - (18.8)
1.0 - 33.39 - (14.5)
1.5 - 48.71 - (15.3)
2.0 - 1:04.83 - (16.1)
2.5 - 1:21.01 - (16.1)
3.0 - 1:37.36 - (16.3)
3.5 - 1:53.96 - (16.5)
4.0 - 2:10.36 - (16.4)
4.5 - 2:27.19 - (16.8)
5.0 - 2:44.13 - (16.9)
5.5 - 3:02.01 - (17.8)
6.0 - 3:19.95 - (17.9)
6.5 - 3:37.91 - (17.9)
7.0 - 3:56.07 - (18.1)
7.5 - 4:15.03 - (18.9)
8.0 - 4:33.23 - (18.1)
23.58